Time,TemperatureF,DewpointF,PressureIn,WindDirection,WindDirectionDegrees,WindSpeedMPH,WindSpeedGustMPH,Humidity,HourlyPrecipIn,Conditions,Clouds,dailyrainin,SolarRadiationWatts/m^2,SoftwareType,DateUTC
2013-02-22 00:01:00,47.0,31.0,-100.00,North,2,8.0,12.0,53,0.00,,,0.09,1.000000,,2013-02-22 06:01:00,
2013-02-22 00:32:00,47.0,36.0,-100.00,NNE,19,10.0,15.0,65,0.00,,,0.09,1.000000,,2013-02-22 06:32:00,
2013-02-22 00:42:00,47.0,36.0,-100.00,NNE,19,10.0,15.0,65,0.00,,,0.09,1.000000,,2013-02-22 06:42:00,
2013-02-22 00:52:00,47.0,36.0,-100.00,NNE,19,10.0,15.0,65,0.00,,,0.09,1.000000,,2013-02-22 06:52:00,
2013-02-22 01:01:00,47.0,36.0,-100.00,NNE,19,10.0,15.0,65,0.00,,,0.09,1.000000,,2013-02-22 07:01:00,
2013-02-22 01:32:00,44.0,36.0,-100.00,NNE,31,5.0,12.0,73,0.00,,,0.09,1.000000,,2013-02-22 07:32:00,
2013-02-22 01:42:00,44.0,36.0,-100.00,NNE,31,5.0,12.0,73,0.00,,,0.09,1.000000,,2013-02-22 07:42:00,
2013-02-22 01:52:00,44.0,36.0,-100.00,NNE,31,5.0,12.0,73,0.00,,,0.09,1.000000,,2013-02-22 07:52:00,
2013-02-22 02:01:00,44.0,36.0,-100.00,NNE,31,5.0,12.0,73,0.00,,,0.09,1.000000,,2013-02-22 08:01:00,
2013-02-22 02:32:00,41.0,36.0,-100.00,North,358,14.0,26.0,83,0.00,,,0.09,1.000000,,2013-02-22 08:32:00,
2013-02-22 02:42:00,41.0,36.0,-100.00,North,358,14.0,26.0,83,0.00,,,0.09,1.000000,,2013-02-22 08:42:00,
2013-02-22 02:52:00,41.0,36.0,-100.00,North,358,14.0,26.0,83,0.00,,,0.09,1.000000,,2013-02-22 08:52:00,
2013-02-22 03:03:00,41.0,36.0,-100.00,North,358,14.0,26.0,83,0.00,,,0.09,1.000000,,2013-02-22 09:03:00,
2013-02-22 03:32:00,36.0,29.0,-100.00,ENE,69,9.0,19.0,74,0.00,,,0.09,1.000000,,2013-02-22 09:32:00,
2013-02-22 03:42:00,36.0,29.0,-100.00,ENE,69,9.0,19.0,74,0.00,,,0.09,1.000000,,2013-02-22 09:42:00,
2013-02-22 03:52:00,36.0,29.0,-100.00,ENE,69,9.0,19.0,74,0.00,,,0.09,1.000000,,2013-02-22 09:52:00,
2013-02-22 04:01:00,36.0,29.0,-100.00,ENE,69,9.0,19.0,74,0.00,,,0.09,1.000000,,2013-02-22 10:01:00,
2013-02-22 04:32:00,35.0,30.0,-100.00,NNE,14,9.0,14.0,82,0.00,,,0.09,1.000000,,2013-02-22 10:32:00,
2013-02-22 04:42:00,35.0,30.0,-100.00,NNE,14,9.0,14.0,82,0.00,,,0.09,1.000000,,2013-02-22 10:42:00,
2013-02-22 04:52:00,35.0,30.0,-100.00,NNE,14,9.0,14.0,82,0.00,,,0.09,1.000000,,2013-02-22 10:52:00,
2013-02-22 05:01:00,35.0,30.0,-100.00,NNE,14,9.0,14.0,82,0.00,,,0.09,1.000000,,2013-02-22 11:01:00,
2013-02-22 05:32:00,33.0,26.0,-100.00,NNE,21,7.0,13.0,75,0.00,,,0.00,1.000000,,2013-02-22 11:32:00,
2013-02-22 05:42:00,33.0,26.0,-100.00,NNE,21,7.0,13.0,75,0.00,,,0.00,1.000000,,2013-02-22 11:42:00,
2013-02-22 05:52:00,33.0,26.0,-100.00,NNE,21,7.0,13.0,75,0.00,,,0.00,1.000000,,2013-02-22 11:52:00,
2013-02-22 06:02:00,33.0,26.0,-100.00,NNE,21,7.0,13.0,75,0.00,,,0.00,1.000000,,2013-02-22 12:02:00,
2013-02-22 06:32:00,31.0,22.0,-100.00,NNE,15,8.0,17.0,69,0.00,,,-99.99,1.000000,,2013-02-22 12:32:00,
2013-02-22 06:42:00,31.0,22.0,-100.00,NNE,15,8.0,17.0,69,0.00,,,-99.99,1.000000,,2013-02-22 12:42:00,
2013-02-22 06:52:00,31.0,22.0,-100.00,NNE,15,8.0,17.0,69,0.00,,,-99.99,1.000000,,2013-02-22 12:52:00,
2013-02-22 07:02:00,31.0,22.0,-100.00,NNE,15,8.0,17.0,69,0.00,,,-99.99,1.000000,,2013-02-22 13:02:00,
2013-02-22 07:32:00,29.0,19.0,-100.00,NE,44,7.0,11.0,67,0.00,,,-99.99,1.000000,,2013-02-22 13:32:00,
2013-02-22 07:42:00,29.0,19.0,-100.00,NE,44,7.0,11.0,67,0.00,,,-99.99,1.000000,,2013-02-22 13:42:00,
2013-02-22 07:52:00,29.0,19.0,-100.00,NE,44,7.0,11.0,67,0.00,,,-99.99,1.000000,,2013-02-22 13:52:00,
2013-02-22 08:01:00,29.0,19.0,-100.00,NE,44,7.0,11.0,67,0.00,,,-99.99,1.000000,,2013-02-22 14:01:00,
2013-02-22 08:32:00,30.0,21.0,-100.00,NE,43,6.0,9.0,70,0.00,,,0.00,28.000000,,2013-02-22 14:32:00,
2013-02-22 08:42:00,30.0,21.0,-100.00,NE,43,6.0,9.0,70,0.00,,,0.00,28.000000,,2013-02-22 14:42:00,
2013-02-22 08:53:00,30.0,21.0,-100.00,NE,43,6.0,9.0,70,0.00,,,0.00,28.000000,,2013-02-22 14:53:00,
2013-02-22 09:01:00,30.0,21.0,-100.00,NE,43,6.0,9.0,70,0.00,,,0.00,28.000000,,2013-02-22 15:01:00,
2013-02-22 09:32:00,31.0,20.0,-100.00,NNE,23,7.0,12.0,63,0.00,,,0.00,114.000000,,2013-02-22 15:32:00,
2013-02-22 09:42:00,31.0,20.0,-100.00,NNE,23,7.0,12.0,63,0.00,,,0.00,114.000000,,2013-02-22 15:42:00,
2013-02-22 09:52:00,31.0,20.0,-100.00,NNE,23,7.0,12.0,63,0.00,,,0.00,114.000000,,2013-02-22 15:52:00,
2013-02-22 10:01:00,31.0,20.0,-100.00,NNE,23,7.0,12.0,63,0.00,,,0.00,114.000000,,2013-02-22 16:01:00,
2013-02-22 10:32:00,34.0,20.0,-100.00,NE,50,7.0,11.0,55,0.00,,,0.00,202.000000,,2013-02-22 16:32:00,
2013-02-22 10:42:00,34.0,20.0,-100.00,NE,50,7.0,11.0,55,0.00,,,0.00,202.000000,,2013-02-22 16:42:00,
2013-02-22 10:52:00,34.0,20.0,-100.00,NE,50,7.0,11.0,55,0.00,,,0.00,202.000000,,2013-02-22 16:52:00,
2013-02-22 11:01:00,34.0,20.0,-100.00,NE,50,7.0,11.0,55,0.00,,,0.00,202.000000,,2013-02-22 17:01:00,
2013-02-22 11:32:00,38.0,22.0,-100.00,NNE,13,6.0,10.0,52,0.00,,,0.00,368.000000,,2013-02-22 17:32:00,
2013-02-22 11:42:00,38.0,22.0,-100.00,NNE,13,6.0,10.0,52,0.00,,,0.00,368.000000,,2013-02-22 17:42:00,
2013-02-22 11:52:00,38.0,22.0,-100.00,NNE,13,6.0,10.0,52,0.00,,,0.00,368.000000,,2013-02-22 17:52:00,
2013-02-22 12:01:00,38.0,22.0,-100.00,NNE,13,6.0,10.0,52,0.00,,,0.00,368.000000,,2013-02-22 18:01:00,
2013-02-22 12:32:00,42.0,22.0,-100.00,North,359,8.0,13.0,45,0.00,,,-99.99,662.000000,,2013-02-22 18:32:00,
2013-02-22 12:42:00,42.0,22.0,-100.00,North,359,8.0,13.0,45,0.00,,,-99.99,662.000000,,2013-02-22 18:42:00,
2013-02-22 12:52:00,42.0,22.0,-100.00,North,359,8.0,13.0,45,0.00,,,-99.99,662.000000,,2013-02-22 18:52:00,
2013-02-22 13:01:00,42.0,22.0,-100.00,North,359,8.0,13.0,45,0.00,,,-99.99,662.000000,,2013-02-22 19:01:00,
2013-02-22 13:31:00,48.0,24.0,-100.00,NE,35,6.0,12.0,39,0.00,,,0.00,774.000000,,2013-02-22 19:31:00,
2013-02-22 13:42:00,48.0,24.0,-100.00,NE,35,6.0,12.0,39,0.00,,,0.00,774.000000,,2013-02-22 19:42:00,
2013-02-22 13:52:00,48.0,24.0,-100.00,NE,35,6.0,12.0,39,0.00,,,0.00,774.000000,,2013-02-22 19:52:00,
2013-02-22 14:01:00,48.0,24.0,-100.00,NE,35,6.0,12.0,39,0.00,,,0.00,774.000000,,2013-02-22 20:01:00,
2013-02-22 14:32:00,52.0,26.0,-100.00,North,354,7.0,11.0,36,0.00,,,0.00,752.000000,,2013-02-22 20:32:00,
2013-02-22 14:42:00,52.0,26.0,-100.00,North,354,7.0,11.0,36,0.00,,,0.00,752.000000,,2013-02-22 20:42:00,
2013-02-22 14:52:00,52.0,26.0,-100.00,North,354,7.0,11.0,36,0.00,,,0.00,752.000000,,2013-02-22 20:52:00,
2013-02-22 15:01:00,52.0,26.0,-100.00,North,354,7.0,11.0,36,0.00,,,0.00,752.000000,,2013-02-22 21:01:00,
2013-02-22 15:32:00,55.0,26.0,-100.00,East,84,5.0,11.0,33,0.00,,,0.00,651.000000,,2013-02-22 21:32:00,
2013-02-22 15:42:00,55.0,26.0,-100.00,East,84,5.0,11.0,33,0.00,,,0.00,651.000000,,2013-02-22 21:42:00,
2013-02-22 15:52:00,55.0,26.0,-100.00,East,84,5.0,11.0,33,0.00,,,0.00,651.000000,,2013-02-22 21:52:00,
2013-02-22 16:01:00,55.0,26.0,-100.00,East,84,5.0,11.0,33,0.00,,,0.00,651.000000,,2013-02-22 22:01:00,
2013-02-22 16:32:00,56.0,27.0,-100.00,ENE,60,5.0,11.0,33,0.00,,,0.00,484.000000,,2013-02-22 22:32:00,
2013-02-22 16:42:00,56.0,27.0,-100.00,ENE,60,5.0,11.0,33,0.00,,,0.00,484.000000,,2013-02-22 22:42:00,
2013-02-22 16:52:00,56.0,27.0,-100.00,ENE,60,5.0,11.0,33,0.00,,,0.00,484.000000,,2013-02-22 22:52:00,
2013-02-22 17:01:00,56.0,27.0,-100.00,ENE,60,5.0,11.0,33,0.00,,,0.00,484.000000,,2013-02-22 23:01:00,
2013-02-22 17:32:00,56.0,28.0,-100.00,ESE,105,5.0,10.0,34,0.00,,,0.00,269.000000,,2013-02-22 23:32:00,
2013-02-22 17:42:00,56.0,28.0,-100.00,ESE,105,5.0,10.0,34,0.00,,,0.00,269.000000,,2013-02-22 23:42:00,
2013-02-22 17:52:00,56.0,28.0,-100.00,ESE,105,5.0,10.0,34,0.00,,,0.00,269.000000,,2013-02-22 23:52:00,
2013-02-22 18:01:00,56.0,28.0,-100.00,ESE,105,5.0,10.0,34,0.00,,,0.00,269.000000,,2013-02-23 00:01:00,
2013-02-22 18:32:00,55.0,27.0,-100.00,East,90,5.0,10.0,34,0.00,,,0.00,153.000000,,2013-02-23 00:32:00,
2013-02-22 18:42:00,55.0,27.0,-100.00,East,90,5.0,10.0,34,0.00,,,0.00,153.000000,,2013-02-23 00:42:00,
2013-02-22 18:52:00,55.0,27.0,-100.00,East,90,5.0,10.0,34,0.00,,,0.00,153.000000,,2013-02-23 00:52:00,
2013-02-22 19:01:00,55.0,27.0,-100.00,East,90,5.0,10.0,34,0.00,,,0.00,153.000000,,2013-02-23 01:01:00,
2013-02-22 19:32:00,49.0,27.0,-100.00,East,96,6.0,7.0,42,0.00,,,-99.99,11.000000,,2013-02-23 01:32:00,
2013-02-22 19:42:00,49.0,27.0,-100.00,East,96,6.0,7.0,42,0.00,,,-99.99,11.000000,,2013-02-23 01:42:00,
2013-02-22 19:52:00,49.0,27.0,-100.00,East,96,6.0,7.0,42,0.00,,,-99.99,11.000000,,2013-02-23 01:52:00,
2013-02-22 20:01:00,49.0,27.0,-100.00,East,96,6.0,7.0,42,0.00,,,-99.99,11.000000,,2013-02-23 02:01:00,
2013-02-22 20:32:00,46.0,26.0,-100.00,ENE,62,6.0,9.0,46,0.00,,,0.00,1.000000,,2013-02-23 02:32:00,
2013-02-22 20:42:00,46.0,26.0,-100.00,ENE,62,6.0,9.0,46,0.00,,,0.00,1.000000,,2013-02-23 02:42:00,
2013-02-22 20:52:00,46.0,26.0,-100.00,ENE,62,6.0,9.0,46,0.00,,,0.00,1.000000,,2013-02-23 02:52:00,
2013-02-22 21:01:00,46.0,26.0,-100.00,ENE,62,6.0,9.0,46,0.00,,,0.00,1.000000,,2013-02-23 03:01:00,
2013-02-22 21:32:00,45.0,27.0,-100.00,ENE,59,10.0,14.0,50,0.00,,,0.00,1.000000,,2013-02-23 03:32:00,
2013-02-22 21:42:00,45.0,27.0,-100.00,ENE,59,10.0,14.0,50,0.00,,,0.00,1.000000,,2013-02-23 03:42:00,
2013-02-22 21:52:00,45.0,27.0,-100.00,ENE,59,10.0,14.0,50,0.00,,,0.00,1.000000,,2013-02-23 03:52:00,
2013-02-22 22:01:00,45.0,27.0,-100.00,ENE,59,10.0,14.0,50,0.00,,,0.00,1.000000,,2013-02-23 04:01:00,
2013-02-22 22:32:00,41.0,26.0,-100.00,NE,52,7.0,12.0,55,0.00,,,-99.99,1.000000,,2013-02-23 04:32:00,
2013-02-22 22:42:00,41.0,26.0,-100.00,NE,52,7.0,12.0,55,0.00,,,-99.99,1.000000,,2013-02-23 04:42:00,
2013-02-22 22:52:00,41.0,26.0,-100.00,NE,52,7.0,12.0,55,0.00,,,-99.99,1.000000,,2013-02-23 04:52:00,
2013-02-22 23:03:00,41.0,26.0,-100.00,NE,52,7.0,12.0,55,0.00,,,-99.99,1.000000,,2013-02-23 05:03:00,
2013-02-22 23:33:00,40.0,25.0,-100.00,East,81,6.0,11.0,55,0.00,,,0.00,1.000000,,2013-02-23 05:33:00,
2013-02-22 23:42:00,40.0,25.0,-100.00,East,81,6.0,11.0,55,0.00,,,0.00,1.000000,,2013-02-23 05:42:00,
2013-02-22 23:52:00,40.0,25.0,-100.00,East,81,6.0,11.0,55,0.00,,,0.00,1.000000,,2013-02-23 05:52:00,